2023/05/13 23:33:37+0000,-32.85,-46.43,-37.04,-50.37,-53.33,-53.33
2023/05/13 23:34:29+0000,-34.10,-45.82,-37.22,-50.79,-52.85,-54.45
2023/05/13 23:35:21+0000,-35.58,-46.83,-37.42,-50.86,-54.25,-55.71
2023/05/13 23:36:13+0000,-35.20,-46.53,-37.50,-50.41,-54.41,-55.15
2023/05/13 23:37:05+0000,-35.69,-45.96,-37.60,-51.53,-53.89,-55.56
2023/05/13 23:37:57+0000,-35.02,-45.74,-37.10,-50.88,-54.67,-55.50
2023/05/13 23:38:49+0000,-34.19,-46.79,-37.47,-51.25,-53.60,-56.20
2023/05/13 23:39:41+0000,-34.99,-45.88,-37.83,-49.83,-54.51,-55.31
2023/05/13 23:40:33+0000,-34.54,-45.51,-37.79,-50.03,-54.01,-55.62
2023/05/13 23:41:32+0000,-33.46,-45.59,-37.69,-50.79,-55.01,-55.38
2023/05/13 23:42:24+0000,-35.24,-46.20,-36.94,-51.52,-54.54,-55.37
2023/05/13 23:43:16+0000,-33.71,-45.78,-37.36,-50.10,-54.15,-55.58
2023/05/13 23:44:09+0000,-34.43,-46.54,-37.43,-49.50,-54.72,-55.69
2023/05/13 23:45:01+0000,-34.34,-46.60,-37.39,-50.85,-54.36,-55.94
2023/05/13 23:45:53+0000,-33.61,-46.71,-37.62,-51.42,-53.05,-55.81
2023/05/13 23:46:45+0000,-33.87,-46.34,-37.33,-50.20,-53.44,-55.50
2023/05/13 23:47:37+0000,-36.10,-46.55,-37.09,-51.51,-54.39,-54.71
2023/05/13 23:48:29+0000,-35.10,-46.78,-37.17,-50.80,-54.39,-55.01
2023/05/13 23:49:21+0000,-35.28,-45.88,-37.58,-51.59,-53.81,-55.94
2023/05/13 23:50:13+0000,-34.86,-46.55,-37.43,-50.16,-54.28,-55.29
2023/05/13 23:51:12+0000,-34.20,-45.29,-37.86,-49.96,-55.17,-55.57
2023/05/13 23:52:04+0000,-34.20,-46.44,-37.38,-51.60,-54.30,-55.31
2023/05/13 23:52:56+0000,-34.67,-46.78,-37.50,-49.99,-54.42,-55.85
2023/05/13 23:53:48+0000,-35.45,-46.92,-38.60,-50.95,-54.04,-55.15
2023/05/13 23:54:40+0000,-35.68,-47.33,-37.96,-49.92,-54.12,-55.82
2023/05/13 23:55:32+0000,-34.83,-47.28,-37.71,-50.38,-53.67,-56.00
2023/05/13 23:56:24+0000,-34.75,-47.17,-37.92,-50.54,-53.87,-55.81
2023/05/13 23:57:16+0000,-35.00,-45.96,-37.38,-50.18,-53.80,-55.39
2023/05/13 23:58:08+0000,-35.90,-47.51,-37.81,-50.18,-54.15,-55.71
2023/05/13 23:59:00+0000,-34.85,-46.75,-38.03,-50.34,-54.42,-55.42
2023/05/13 23:59:52+0000,-35.50,-47.86,-38.16,-50.92,-52.97,-54.89
2023/05/14 00:00:48+0000,-34.27,-47.48,-38.08,-51.16,-53.53,-55.08
2023/05/14 00:01:50+0000,-34.51,-45.66,-37.57,-50.97,-52.69,-54.78
2023/05/14 00:02:42+0000,-34.90,-46.19,-37.86,-49.85,-53.77,-55.03
2023/05/14 00:03:34+0000,-34.71,-45.62,-37.43,-51.84,-54.72,-55.08
2023/05/14 00:04:26+0000,-34.12,-45.67,-36.90,-49.38,-54.19,-54.83
2023/05/14 00:05:18+0000,-34.42,-44.44,-37.51,-51.82,-53.40,-55.49
2023/05/14 00:06:10+0000,-34.81,-45.61,-37.72,-50.71,-54.36,-55.55
2023/05/14 00:07:03+0000,-33.63,-45.61,-36.95,-49.51,-54.18,-55.41
2023/05/14 00:07:55+0000,-34.35,-44.99,-37.34,-50.53,-54.74,-55.32
2023/05/14 00:08:47+0000,-35.30,-45.74,-37.55,-49.94,-54.17,-54.94
2023/05/14 00:09:39+0000,-34.03,-45.63,-37.68,-50.18,-51.47,-54.18
2023/05/14 00:10:31+0000,-34.60,-46.44,-37.35,-50.90,-53.80,-54.35
2023/05/14 00:11:31+0000,-34.88,-45.87,-37.43,-50.57,-54.49,-53.89
2023/05/14 00:12:23+0000,-35.39,-45.09,-37.62,-50.22,-52.82,-54.81
2023/05/14 00:13:15+0000,-34.83,-45.65,-38.01,-50.38,-53.29,-54.31
2023/05/14 00:14:07+0000,-34.57,-45.76,-37.52,-50.87,-53.82,-54.00
2023/05/14 00:14:59+0000,-35.02,-45.67,-37.58,-50.37,-53.32,-54.52
2023/05/14 00:15:51+0000,-34.83,-46.47,-37.45,-49.90,-52.10,-54.25
2023/05/14 00:16:43+0000,-35.10,-47.21,-37.22,-49.54,-52.67,-54.53
2023/05/14 00:17:35+0000,-34.20,-46.77,-37.17,-51.30,-53.17,-54.51
2023/05/14 00:18:27+0000,-34.68,-46.90,-37.45,-49.24,-52.69,-54.80
2023/05/14 00:19:19+0000,-34.10,-45.76,-37.20,-51.52,-51.86,-54.31
2023/05/14 00:20:11+0000,-34.48,-47.42,-37.57,-49.36,-52.90,-54.59
2023/05/14 00:21:14+0000,-33.89,-46.17,-37.30,-50.64,-51.96,-54.62
2023/05/14 00:22:06+0000,-35.57,-46.35,-37.29,-49.96,-52.68,-54.43
2023/05/14 00:22:58+0000,-34.12,-46.96,-37.18,-49.12,-53.68,-54.58
2023/05/14 00:23:50+0000,-35.58,-47.51,-37.38,-50.12,-51.55,-54.19
2023/05/14 00:24:42+0000,-33.83,-46.75,-37.22,-50.20,-51.59,-54.52
2023/05/14 00:25:34+0000,-34.20,-47.34,-37.14,-51.12,-53.55,-54.48
2023/05/14 00:26:26+0000,-34.00,-46.84,-37.23,-49.06,-53.15,-54.04
2023/05/14 00:27:18+0000,-34.05,-47.28,-37.28,-52.06,-51.67,-54.70
2023/05/14 00:28:10+0000,-33.86,-47.05,-37.56,-49.33,-53.30,-54.60
2023/05/14 00:29:02+0000,-34.85,-46.97,-37.81,-50.46,-52.94,-54.34
2023/05/14 00:29:54+0000,-34.23,-47.15,-37.81,-50.75,-51.83,-54.80
2023/05/14 00:30:46+0000,-33.47,-46.45,-37.66,-48.43,-52.69,-54.52
2023/05/14 00:31:46+0000,-33.41,-46.53,-36.76,-50.44,-52.28,-54.47
2023/05/14 00:32:38+0000,-33.58,-47.13,-37.49,-49.66,-52.47,-54.93
2023/05/14 00:33:30+0000,-33.77,-47.20,-37.76,-50.51,-52.54,-54.35
2023/05/14 00:34:22+0000,-34.31,-46.60,-37.76,-49.88,-52.86,-54.45
2023/05/14 00:35:14+0000,-35.30,-47.31,-37.51,-50.84,-51.99,-54.82
2023/05/14 00:36:06+0000,-33.69,-46.58,-37.56,-49.53,-53.95,-54.17
2023/05/14 00:36:58+0000,-34.24,-46.65,-37.23,-51.36,-53.17,-54.36
2023/05/14 00:37:50+0000,-34.15,-46.90,-38.25,-51.88,-52.68,-53.97
2023/05/14 00:38:42+0000,-35.36,-47.23,-37.57,-48.67,-53.22,-54.57
2023/05/14 00:39:34+0000,-34.24,-46.32,-37.66,-51.85,-52.86,-54.44
2023/05/14 00:40:26+0000,-34.82,-46.67,-37.70,-50.18,-53.06,-55.02
2023/05/14 00:41:24+0000,-34.31,-46.68,-37.08,-50.37,-48.58,-54.76
2023/05/14 00:42:16+0000,-34.58,-46.04,-37.36,-50.03,-52.76,-55.05
2023/05/14 00:43:08+0000,-34.51,-46.22,-37.31,-49.61,-52.77,-54.87
2023/05/14 00:44:00+0000,-34.06,-45.10,-37.95,-50.15,-51.82,-54.66
2023/05/14 00:44:53+0000,-35.30,-45.58,-37.89,-49.17,-49.62,-53.48
2023/05/14 00:45:45+0000,-34.93,-46.59,-37.93,-49.99,-50.54,-53.74
2023/05/14 00:46:37+0000,-35.52,-46.33,-37.94,-49.50,-52.11,-53.91
2023/05/14 00:47:29+0000,-34.42,-46.57,-37.30,-49.87,-53.24,-54.97
2023/05/14 00:48:21+0000,-34.53,-46.77,-37.75,-51.35,-53.35,-55.45
2023/05/14 00:49:13+0000,-34.82,-47.06,-37.47,-48.29,-54.18,-55.15
2023/05/14 00:50:05+0000,-35.20,-47.52,-37.52,-51.52,-53.75,-55.20
2023/05/14 00:51:03+0000,-33.89,-47.90,-37.62,-50.66,-54.03,-54.97
2023/05/14 00:51:55+0000,-33.72,-46.04,-37.71,-49.96,-54.54,-55.35
2023/05/14 00:52:47+0000,-35.64,-46.68,-37.42,-50.32,-52.84,-55.57
2023/05/14 00:53:39+0000,-35.00,-47.54,-36.94,-50.10,-53.79,-55.04
2023/05/14 00:54:31+0000,-35.18,-44.63,-37.34,-48.56,-54.56,-55.80
2023/05/14 00:55:23+0000,-35.86,-45.52,-37.15,-49.59,-52.96,-55.23
2023/05/14 00:56:15+0000,-34.44,-45.48,-37.80,-50.05,-53.61,-55.57
2023/05/14 00:57:07+0000,-35.23,-44.67,-37.71,-51.16,-54.50,-55.52
2023/05/14 00:57:59+0000,-35.04,-44.55,-37.32,-50.25,-54.20,-56.16
2023/05/14 00:58:51+0000,-34.04,-44.17,-37.98,-51.53,-52.15,-55.41
2023/05/14 00:59:43+0000,-34.32,-44.59,-38.45,-50.02,-51.23,-53.59
2023/05/14 01:00:35+0000,-34.42,-44.76,-37.44,-52.43,-52.86,-55.40
2023/05/14 01:01:35+0000,-34.29,-44.87,-38.06,-50.31,-53.00,-54.58
2023/05/14 01:02:27+0000,-34.06,-45.57,-38.19,-49.44,-53.40,-54.75
2023/05/14 01:03:19+0000,-31.45,-44.44,-37.58,-51.79,-52.51,-54.23
2023/05/14 01:04:11+0000,-33.57,-44.63,-37.62,-49.88,-52.63,-54.52
2023/05/14 01:05:03+0000,-33.08,-44.85,-37.50,-51.37,-52.85,-54.75
2023/05/14 01:05:55+0000,-34.26,-44.13,-37.36,-49.78,-53.78,-55.81
2023/05/14 01:06:47+0000,-34.76,-44.38,-37.16,-48.97,-53.22,-55.54
2023/05/14 01:07:39+0000,-35.02,-46.77,-37.94,-50.15,-54.41,-55.21
2023/05/14 01:08:31+0000,-33.51,-44.39,-37.73,-48.68,-53.41,-56.23
2023/05/14 01:09:23+0000,-33.51,-44.90,-37.66,-49.77,-53.45,-55.52
2023/05/14 01:10:15+0000,-34.16,-44.07,-37.48,-50.63,-52.96,-55.65
2023/05/14 01:11:13+0000,-32.92,-44.25,-37.59,-51.02,-53.05,-55.90
2023/05/14 01:12:05+0000,-33.52,-44.05,-37.57,-49.98,-53.18,-55.49
2023/05/14 01:12:57+0000,-33.70,-44.01,-37.49,-48.82,-52.74,-55.62
2023/05/14 01:13:50+0000,-35.16,-45.30,-37.66,-52.20,-52.55,-55.75
2023/05/14 01:14:42+0000,-34.19,-43.95,-38.18,-50.60,-52.61,-55.22
2023/05/14 01:15:34+0000,-34.42,-44.47,-38.28,-52.17,-53.62,-55.38
2023/05/14 01:16:26+0000,-33.83,-44.18,-38.26,-49.37,-54.37,-55.96
2023/05/14 01:17:18+0000,-33.43,-44.58,-37.37,-51.67,-52.54,-55.65
2023/05/14 01:18:10+0000,-34.19,-45.03,-37.36,-49.91,-54.76,-55.32
2023/05/14 01:19:02+0000,-34.25,-44.62,-38.10,-49.35,-54.72,-55.47
2023/05/14 01:19:54+0000,-34.10,-44.34,-37.75,-49.23,-53.72,-55.60
2023/05/14 01:20:46+0000,-34.79,-45.11,-38.15,-49.23,-52.83,-54.60
2023/05/14 01:21:50+0000,-33.93,-44.59,-37.62,-49.79,-52.75,-55.83
2023/05/14 01:22:42+0000,-34.12,-44.70,-37.57,-49.51,-52.15,-55.09
2023/05/14 01:23:34+0000,-33.58,-44.52,-37.84,-51.48,-54.42,-55.46
2023/05/14 01:24:26+0000,-34.51,-44.50,-38.14,-50.22,-53.53,-55.28
2023/05/14 01:25:18+0000,-34.48,-43.69,-38.37,-51.53,-53.53,-55.31
2023/05/14 01:26:11+0000,-34.58,-43.44,-38.05,-50.68,-53.94,-55.66
2023/05/14 01:27:03+0000,-34.26,-44.29,-37.96,-51.23,-54.25,-55.00
2023/05/14 01:27:55+0000,-34.26,-44.35,-37.65,-49.31,-54.21,-55.03
2023/05/14 01:28:47+0000,-34.79,-44.70,-37.76,-49.54,-53.18,-55.43
2023/05/14 01:29:39+0000,-34.12,-44.84,-37.46,-49.85,-54.97,-55.16
2023/05/14 01:30:31+0000,-35.20,-45.60,-37.55,-49.45,-54.43,-55.76
2023/05/14 01:31:29+0000,-34.45,-44.73,-37.42,-50.20,-54.81,-55.25
2023/05/14 01:32:21+0000,-33.70,-46.41,-37.57,-49.24,-53.90,-55.27
2023/05/14 01:33:13+0000,-34.02,-45.93,-37.21,-49.71,-52.93,-55.20
2023/05/14 01:34:05+0000,-34.24,-45.68,-37.20,-51.24,-53.66,-55.04
2023/05/14 01:34:57+0000,-33.59,-45.85,-37.38,-49.97,-53.10,-55.27
2023/05/14 01:35:49+0000,-35.10,-45.56,-37.76,-52.12,-53.14,-55.25
2023/05/14 01:36:42+0000,-34.29,-45.79,-37.01,-49.17,-54.24,-55.35
2023/05/14 01:37:34+0000,-33.77,-45.05,-37.56,-51.83,-53.87,-55.50
2023/05/14 01:38:26+0000,-35.32,-44.98,-37.44,-50.50,-53.78,-54.94
2023/05/14 01:39:18+0000,-32.95,-45.47,-37.50,-49.06,-52.42,-55.76
2023/05/14 01:40:10+0000,-34.56,-44.69,-37.59,-49.57,-53.81,-55.40
2023/05/14 01:41:08+0000,-33.20,-45.88,-36.98,-50.21,-54.23,-55.59
2023/05/14 01:42:00+0000,-34.76,-45.14,-37.09,-49.00,-53.58,-55.14
2023/05/14 01:42:52+0000,-34.86,-45.40,-37.80,-50.59,-52.36,-55.65
2023/05/14 01:43:44+0000,-33.34,-45.45,-37.26,-50.38,-53.30,-55.42
2023/05/14 01:44:36+0000,-34.17,-45.46,-36.97,-50.63,-53.90,-53.31
2023/05/14 01:45:28+0000,-34.83,-44.46,-37.37,-51.02,-52.70,-53.20
2023/05/14 01:46:20+0000,-34.97,-44.76,-36.40,-51.23,-51.77,-54.91
2023/05/14 01:47:12+0000,-35.10,-44.79,-36.94,-49.57,-53.99,-54.93
2023/05/14 01:48:04+0000,-34.44,-44.90,-37.14,-52.20,-54.44,-54.30
2023/05/14 01:48:56+0000,-34.39,-45.27,-37.65,-50.13,-53.30,-54.46
2023/05/14 01:49:48+0000,-35.68,-44.46,-37.54,-49.41,-53.55,-54.57
2023/05/14 01:50:40+0000,-34.37,-44.42,-36.90,-50.39,-54.06,-54.42
2023/05/14 01:51:39+0000,-34.91,-45.77,-37.37,-50.11,-54.13,-54.71
2023/05/14 01:52:31+0000,-35.00,-45.86,-37.96,-50.76,-53.61,-54.41
2023/05/14 01:53:23+0000,-34.43,-45.85,-37.56,-51.56,-53.03,-54.45
2023/05/14 01:54:15+0000,-34.34,-45.32,-37.89,-50.09,-52.89,-54.46
2023/05/14 01:55:07+0000,-34.40,-46.74,-37.46,-49.71,-53.28,-54.08
2023/05/14 01:55:59+0000,-33.01,-46.45,-37.77,-49.21,-52.69,-53.98
2023/05/14 01:56:51+0000,-34.31,-45.18,-37.53,-52.16,-52.41,-54.13
2023/05/14 01:57:43+0000,-34.25,-44.41,-37.03,-50.85,-53.73,-54.29
2023/05/14 01:58:35+0000,-34.70,-45.48,-37.26,-51.77,-53.60,-53.95
2023/05/14 01:59:27+0000,-34.26,-45.15,-37.03,-49.92,-53.58,-54.70
2023/05/14 02:00:19+0000,-33.55,-44.90,-36.98,-50.57,-52.69,-54.70
2023/05/14 02:01:18+0000,-34.82,-45.79,-37.39,-52.21,-52.67,-54.24
2023/05/14 02:02:10+0000,-34.61,-46.07,-37.16,-49.25,-52.65,-53.95
2023/05/14 02:03:02+0000,-34.47,-46.31,-37.23,-50.88,-53.37,-53.63
2023/05/14 02:03:54+0000,-35.32,-46.15,-37.49,-47.56,-53.62,-54.22
2023/05/14 02:04:46+0000,-33.92,-45.24,-37.81,-49.84,-53.98,-54.70
2023/05/14 02:05:38+0000,-34.17,-46.17,-37.90,-49.23,-53.09,-54.18
2023/05/14 02:06:30+0000,-35.29,-46.37,-37.69,-46.72,-53.37,-54.45
2023/05/14 02:07:22+0000,-34.09,-45.58,-37.68,-49.13,-53.10,-54.66
2023/05/14 02:08:14+0000,-34.01,-46.29,-37.95,-49.88,-53.82,-55.17
2023/05/14 02:09:06+0000,-34.96,-45.28,-37.73,-49.78,-53.26,-54.12
2023/05/14 02:09:58+0000,-34.62,-44.72,-38.73,-50.12,-53.54,-54.79
2023/05/14 02:10:50+0000,-33.75,-45.26,-38.15,-48.24,-51.95,-54.53
2023/05/14 02:11:49+0000,-35.04,-44.71,-37.85,-51.75,-53.07,-54.74
2023/05/14 02:12:41+0000,-33.61,-46.20,-38.17,-50.34,-53.75,-54.07
2023/05/14 02:13:33+0000,-34.37,-46.15,-37.63,-52.07,-53.17,-54.90
2023/05/14 02:14:25+0000,-34.77,-45.06,-37.44,-50.15,-53.62,-54.90
2023/05/14 02:15:17+0000,-34.58,-46.35,-37.92,-50.45,-52.30,-55.07
2023/05/14 02:16:09+0000,-34.45,-44.74,-37.87,-50.44,-53.25,-54.53
2023/05/14 02:17:01+0000,-34.21,-45.83,-37.81,-50.70,-53.48,-54.51
2023/05/14 02:17:53+0000,-34.85,-45.25,-37.91,-49.46,-51.85,-54.85
2023/05/14 02:18:45+0000,-34.40,-45.50,-37.99,-50.77,-51.40,-54.62
2023/05/14 02:19:37+0000,-34.98,-46.12,-38.39,-51.20,-51.97,-54.87
2023/05/14 02:20:29+0000,-35.31,-46.15,-38.33,-50.06,-52.18,-54.37
2023/05/14 02:21:27+0000,-34.94,-46.05,-38.84,-50.10,-52.51,-54.45
2023/05/14 02:22:19+0000,-34.58,-45.74,-37.99,-52.26,-51.61,-54.05
2023/05/14 02:23:11+0000,-34.32,-45.73,-38.41,-50.29,-53.47,-54.18
2023/05/14 02:24:03+0000,-35.47,-46.16,-38.02,-52.49,-53.01,-54.31
2023/05/14 02:24:55+0000,-34.12,-45.75,-38.11,-49.75,-53.17,-54.81
2023/05/14 02:25:47+0000,-34.21,-45.45,-37.92,-44.81,-52.24,-54.13
2023/05/14 02:26:39+0000,-34.89,-45.43,-38.00,-50.70,-52.80,-54.62
2023/05/14 02:27:32+0000,-34.49,-46.31,-37.25,-49.20,-52.66,-54.51
2023/05/14 02:28:24+0000,-33.87,-45.14,-36.99,-48.97,-51.60,-54.63
2023/05/14 02:29:16+0000,-33.91,-44.84,-38.10,-49.94,-51.27,-54.80
2023/05/14 02:30:08+0000,-34.58,-45.39,-37.92,-50.36,-53.52,-54.37
2023/05/14 02:31:11+0000,-35.08,-45.43,-38.07,-50.01,-53.20,-54.69
2023/05/14 02:32:03+0000,-35.26,-45.35,-36.92,-50.67,-53.53,-54.23
2023/05/14 02:32:55+0000,-34.51,-44.62,-37.24,-45.99,-53.29,-54.77
2023/05/14 02:33:47+0000,-34.61,-45.28,-37.41,-50.98,-50.82,-54.01
2023/05/14 02:34:39+0000,-34.92,-45.77,-37.42,-50.35,-53.63,-54.49
2023/05/14 02:35:31+0000,-35.64,-45.09,-37.61,-50.03,-53.29,-54.05
2023/05/14 02:36:24+0000,-34.78,-45.14,-37.67,-49.84,-52.81,-54.63
2023/05/14 02:37:16+0000,-34.26,-45.72,-37.84,-48.34,-51.99,-54.41
2023/05/14 02:38:08+0000,-34.80,-45.83,-38.24,-50.22,-53.55,-54.26
2023/05/14 02:39:00+0000,-34.07,-45.35,-38.75,-49.15,-53.29,-54.44
2023/05/14 02:39:52+0000,-35.58,-47.17,-38.55,-49.05,-51.09,-54.07
2023/05/14 02:40:44+0000,-35.09,-45.60,-38.82,-48.24,-52.28,-54.12
2023/05/14 02:41:43+0000,-35.09,-46.18,-39.06,-49.28,-50.48,-54.71
2023/05/14 02:42:35+0000,-36.78,-45.42,-38.73,-52.24,-52.15,-54.18
2023/05/14 02:43:27+0000,-35.52,-44.29,-38.92,-48.68,-52.97,-53.75
2023/05/14 02:44:19+0000,-34.34,-45.29,-38.27,-51.32,-52.54,-54.28
2023/05/14 02:45:11+0000,-36.18,-45.73,-37.11,-48.81,-52.55,-54.42
2023/05/14 02:46:03+0000,-36.02,-45.39,-38.74,-45.12,-50.20,-53.54
2023/05/14 02:46:55+0000,-35.48,-45.30,-37.93,-45.23,-52.54,-54.10
2023/05/14 02:47:47+0000,-34.52,-45.84,-37.78,-48.53,-52.02,-54.03
2023/05/14 02:48:39+0000,-34.41,-44.54,-37.25,-48.84,-53.58,-55.60
2023/05/14 02:49:31+0000,-34.78,-44.20,-37.35,-48.78,-52.38,-55.04
2023/05/14 02:50:23+0000,-35.59,-45.34,-37.97,-48.60,-53.75,-55.16
2023/05/14 02:51:22+0000,-34.61,-46.49,-38.24,-48.99,-52.97,-55.55
2023/05/14 02:52:14+0000,-35.08,-45.08,-37.97,-49.87,-52.82,-55.09
2023/05/14 02:53:07+0000,-34.98,-46.46,-37.97,-51.21,-53.08,-55.19
2023/05/14 02:53:59+0000,-36.46,-45.28,-37.82,-48.83,-52.85,-55.44
2023/05/14 02:54:51+0000,-34.89,-46.36,-38.08,-51.85,-51.97,-54.91
2023/05/14 02:55:43+0000,-35.42,-45.89,-38.36,-49.82,-52.57,-55.09
2023/05/14 02:56:35+0000,-34.55,-44.60,-38.23,-51.34,-53.25,-55.49
2023/05/14 02:57:27+0000,-35.85,-46.00,-37.79,-49.16,-53.30,-55.62
2023/05/14 02:58:19+0000,-34.74,-45.37,-38.74,-48.67,-52.41,-54.59
2023/05/14 02:59:11+0000,-34.50,-46.46,-38.04,-49.22,-53.43,-55.18
2023/05/14 03:00:03+0000,-35.92,-46.50,-38.88,-48.43,-53.15,-55.35
2023/05/14 03:01:02+0000,-34.78,-46.13,-38.88,-49.11,-53.22,-55.13
2023/05/14 03:01:54+0000,-34.95,-44.62,-37.86,-48.36,-53.31,-55.27
2023/05/14 03:02:46+0000,-34.18,-45.19,-37.90,-49.18,-52.83,-55.29
2023/05/14 03:03:38+0000,-34.85,-45.19,-38.41,-50.22,-53.70,-55.47
2023/05/14 03:04:30+0000,-35.00,-45.54,-37.70,-49.47,-53.03,-55.52
2023/05/14 03:05:22+0000,-35.35,-45.63,-37.59,-48.33,-52.85,-55.40
2023/05/14 03:06:15+0000,-34.28,-45.82,-38.08,-49.72,-52.47,-55.70
2023/05/14 03:07:07+0000,-34.44,-47.16,-38.21,-50.03,-53.02,-55.38
2023/05/14 03:07:59+0000,-34.10,-45.91,-38.55,-48.34,-52.84,-55.34
2023/05/14 03:08:51+0000,-34.87,-47.16,-37.88,-47.88,-53.50,-55.24
2023/05/14 03:09:43+0000,-35.83,-44.08,-38.40,-49.62,-52.56,-55.42
2023/05/14 03:10:35+0000,-34.92,-45.95,-37.86,-51.87,-52.82,-55.52
2023/05/14 03:11:35+0000,-34.83,-44.24,-37.65,-49.38,-52.48,-55.51
2023/05/14 03:12:27+0000,-35.99,-45.30,-39.09,-49.63,-52.31,-55.12
2023/05/14 03:13:19+0000,-35.35,-45.27,-38.63,-51.67,-52.12,-55.39
2023/05/14 03:14:11+0000,-35.31,-44.78,-38.38,-48.56,-53.60,-55.61
2023/05/14 03:15:03+0000,-35.36,-44.99,-38.35,-52.75,-52.19,-55.56
2023/05/14 03:15:55+0000,-35.69,-45.28,-37.80,-49.07,-53.12,-55.18
2023/05/14 03:16:47+0000,-35.37,-45.64,-38.55,-49.78,-52.39,-55.34
2023/05/14 03:17:39+0000,-34.73,-45.32,-38.44,-49.76,-52.91,-55.09
2023/05/14 03:18:31+0000,-35.04,-45.26,-38.00,-47.96,-52.69,-55.15
2023/05/14 03:19:23+0000,-34.72,-44.32,-38.20,-48.65,-52.65,-55.45
2023/05/14 03:20:15+0000,-34.11,-45.98,-36.62,-49.78,-51.86,-55.72
2023/05/14 03:21:19+0000,-34.85,-45.01,-36.83,-50.90,-52.05,-54.33
2023/05/14 03:22:11+0000,-35.47,-45.35,-38.08,-49.38,-53.41,-55.02
2023/05/14 03:23:03+0000,-35.60,-45.32,-38.47,-48.02,-53.34,-55.42
2023/05/14 03:23:55+0000,-35.77,-44.36,-38.47,-46.44,-53.12,-55.65
2023/05/14 03:24:47+0000,-34.97,-42.50,-39.04,-49.82,-52.15,-56.07
2023/05/14 03:25:39+0000,-35.19,-45.19,-39.11,-49.60,-52.86,-55.12
2023/05/14 03:26:31+0000,-35.42,-44.94,-37.38,-48.37,-52.61,-55.47
2023/05/14 03:27:23+0000,-33.99,-45.57,-38.56,-48.23,-49.86,-54.12
2023/05/14 03:28:15+0000,-34.84,-45.01,-38.99,-48.74,-50.91,-55.73
2023/05/14 03:29:07+0000,-35.35,-46.63,-38.01,-49.04,-50.56,-55.90
2023/05/14 03:29:59+0000,-35.94,-44.30,-37.90,-47.72,-51.86,-56.31
2023/05/14 03:30:51+0000,-34.80,-45.80,-38.18,-50.96,-52.66,-55.48
2023/05/14 03:31:51+0000,-35.37,-46.83,-38.33,-46.92,-52.00,-56.01
2023/05/14 03:32:43+0000,-34.54,-44.11,-38.58,-50.07,-53.35,-55.28
2023/05/14 03:33:35+0000,-37.12,-42.30,-36.81,-50.97,-52.79,-55.59
2023/05/14 03:34:27+0000,-35.35,-42.26,-38.00,-49.20,-52.44,-55.23
2023/05/14 03:35:19+0000,-35.38,-44.91,-38.18,-51.10,-52.56,-55.15
2023/05/14 03:36:11+0000,-35.64,-43.95,-38.08,-49.73,-53.43,-55.37
2023/05/14 03:37:03+0000,-35.76,-41.26,-36.91,-47.96,-53.01,-55.49
2023/05/14 03:37:55+0000,-34.62,-43.59,-38.67,-46.44,-53.21,-55.46
2023/05/14 03:38:47+0000,-35.06,-41.36,-38.38,-49.98,-53.01,-55.38
2023/05/14 03:39:39+0000,-34.91,-43.12,-36.71,-49.97,-52.33,-55.42
2023/05/14 03:40:31+0000,-35.61,-43.39,-37.03,-45.18,-52.76,-54.92
2023/05/14 03:41:30+0000,-35.65,-44.42,-36.93,-46.92,-53.11,-55.82
2023/05/14 03:42:22+0000,-35.65,-46.00,-38.67,-48.17,-52.92,-55.46
2023/05/14 03:43:14+0000,-36.23,-45.00,-38.07,-50.47,-52.32,-55.49
2023/05/14 03:44:06+0000,-34.95,-46.05,-36.97,-50.34,-52.97,-55.33
2023/05/14 03:44:59+0000,-35.66,-41.36,-38.81,-47.89,-52.08,-55.28
2023/05/14 03:45:51+0000,-35.04,-44.92,-38.14,-51.70,-53.50,-55.53
2023/05/14 03:46:43+0000,-36.25,-44.44,-38.99,-50.01,-52.96,-55.84
2023/05/14 03:47:35+0000,-35.96,-43.76,-38.22,-52.03,-53.13,-55.55
2023/05/14 03:48:27+0000,-35.52,-44.78,-38.69,-49.71,-53.31,-55.88
2023/05/14 03:49:19+0000,-35.13,-43.93,-38.64,-50.80,-52.52,-55.27
2023/05/14 03:50:11+0000,-35.36,-43.87,-38.09,-50.28,-53.65,-55.60
2023/05/14 03:51:10+0000,-36.31,-44.41,-38.21,-48.22,-53.57,-55.02
2023/05/14 03:52:02+0000,-34.54,-44.41,-37.10,-47.60,-53.25,-55.14
2023/05/14 03:52:54+0000,-35.83,-43.46,-38.06,-48.81,-52.87,-55.04
2023/05/14 03:53:46+0000,-35.30,-45.41,-38.29,-49.01,-53.24,-55.44
2023/05/14 03:54:38+0000,-35.99,-47.30,-38.15,-48.17,-53.74,-55.37
2023/05/14 03:55:30+0000,-36.00,-44.00,-37.80,-48.55,-53.67,-55.85
2023/05/14 03:56:22+0000,-34.76,-44.77,-37.31,-49.14,-53.65,-55.64
2023/05/14 03:57:14+0000,-35.21,-47.21,-38.82,-47.77,-52.54,-55.51
2023/05/14 03:58:06+0000,-35.64,-43.86,-37.48,-48.65,-54.13,-55.30
2023/05/14 03:58:58+0000,-35.57,-43.79,-38.63,-48.89,-53.34,-55.38
2023/05/14 03:59:51+0000,-35.29,-45.20,-37.88,-51.23,-52.84,-55.50
2023/05/14 04:00:43+0000,-36.05,-45.78,-38.18,-48.04,-54.32,-55.46
2023/05/14 04:01:42+0000,-35.29,-44.95,-38.38,-48.66,-53.15,-55.04
2023/05/14 04:02:34+0000,-35.64,-44.38,-36.85,-51.33,-53.83,-55.47
2023/05/14 04:03:26+0000,-34.86,-44.72,-37.97,-48.75,-53.43,-55.05
2023/05/14 04:04:18+0000,-35.45,-45.72,-38.57,-50.62,-52.89,-54.73
2023/05/14 04:05:10+0000,-34.83,-45.47,-37.04,-49.16,-53.81,-54.91
2023/05/14 04:06:02+0000,-33.78,-45.54,-38.16,-50.90,-53.77,-55.12
2023/05/14 04:06:54+0000,-34.01,-45.36,-37.56,-47.83,-52.36,-54.04
2023/05/14 04:07:46+0000,-35.25,-44.91,-38.14,-48.54,-53.63,-54.59
2023/05/14 04:08:38+0000,-33.71,-45.20,-37.98,-50.42,-53.43,-54.26
2023/05/14 04:09:30+0000,-35.51,-44.69,-38.02,-49.22,-53.26,-54.96
2023/05/14 04:10:23+0000,-35.76,-45.39,-38.80,-49.23,-53.51,-54.57
2023/05/14 04:11:22+0000,-34.80,-46.28,-38.18,-49.43,-53.41,-54.69
2023/05/14 04:12:14+0000,-35.12,-45.91,-39.10,-50.63,-53.41,-54.21
2023/05/14 04:13:06+0000,-36.01,-47.33,-37.97,-50.58,-53.35,-53.65
2023/05/14 04:13:58+0000,-35.60,-47.07,-39.17,-48.87,-54.11,-54.46
2023/05/14 04:14:50+0000,-36.07,-47.61,-38.74,-51.28,-53.93,-54.91
2023/05/14 04:15:42+0000,-34.36,-45.60,-39.03,-50.03,-53.06,-54.65
2023/05/14 04:16:34+0000,-35.10,-45.52,-39.06,-51.51,-53.66,-54.80
2023/05/14 04:17:26+0000,-35.21,-45.43,-39.03,-49.12,-53.05,-54.72
2023/05/14 04:18:18+0000,-35.11,-45.07,-38.70,-50.97,-52.71,-54.81
2023/05/14 04:19:10+0000,-36.24,-46.13,-38.54,-49.60,-53.38,-54.66
2023/05/14 04:20:02+0000,-35.27,-46.71,-38.27,-49.33,-52.53,-54.13
2023/05/14 04:21:01+0000,-35.36,-45.58,-38.61,-49.94,-53.93,-54.26
2023/05/14 04:21:53+0000,-36.20,-45.68,-38.56,-49.53,-53.25,-54.44
2023/05/14 04:22:45+0000,-35.54,-45.18,-38.85,-50.30,-52.88,-54.52
2023/05/14 04:23:37+0000,-34.46,-46.10,-39.44,-48.16,-53.06,-54.63
2023/05/14 04:24:29+0000,-35.04,-45.80,-39.03,-49.56,-53.59,-54.14
2023/05/14 04:25:21+0000,-36.07,-46.78,-39.41,-49.97,-53.45,-54.67
2023/05/14 04:26:13+0000,-35.23,-44.05,-38.97,-49.96,-52.98,-54.84
2023/05/14 04:27:06+0000,-35.12,-46.25,-38.31,-50.30,-52.90,-55.00
2023/05/14 04:27:58+0000,-35.26,-45.55,-39.05,-47.81,-53.81,-54.09
2023/05/14 04:28:50+0000,-35.80,-45.09,-39.08,-51.47,-53.32,-54.20
2023/05/14 04:29:42+0000,-35.74,-46.32,-37.52,-48.88,-53.62,-54.11
2023/05/14 04:30:34+0000,-34.23,-45.42,-36.26,-50.56,-52.97,-53.76
2023/05/14 04:31:33+0000,-34.06,-45.85,-36.39,-47.42,-52.90,-53.85
2023/05/14 04:32:25+0000,-34.87,-47.25,-38.11,-49.33,-53.49,-53.91
2023/05/14 04:33:17+0000,-34.87,-46.46,-37.28,-49.18,-53.43,-53.93
2023/05/14 04:34:09+0000,-34.56,-46.36,-35.42,-49.38,-53.15,-54.27
2023/05/14 04:35:01+0000,-34.85,-46.70,-36.13,-49.78,-52.92,-54.21
2023/05/14 04:35:53+0000,-34.40,-46.41,-36.04,-48.94,-52.84,-54.00
2023/05/14 04:36:45+0000,-35.18,-45.55,-35.82,-50.34,-53.06,-54.18
2023/05/14 04:37:37+0000,-35.16,-47.05,-35.70,-49.65,-52.48,-54.66
2023/05/14 04:38:29+0000,-35.41,-46.04,-35.52,-49.12,-52.61,-54.39
2023/05/14 04:39:21+0000,-34.04,-46.40,-36.16,-48.93,-53.15,-54.81
2023/05/14 04:40:14+0000,-35.06,-45.56,-36.22,-48.01,-52.25,-54.17
2023/05/14 04:41:13+0000,-34.83,-46.86,-35.95,-48.39,-52.86,-54.64
2023/05/14 04:42:05+0000,-34.51,-45.90,-36.11,-49.76,-52.25,-53.88
2023/05/14 04:42:57+0000,-34.17,-45.98,-36.82,-49.48,-51.99,-54.01
2023/05/14 04:43:49+0000,-34.67,-46.33,-36.51,-48.80,-52.40,-54.16
2023/05/14 04:44:41+0000,-35.52,-45.53,-35.17,-49.16,-52.68,-54.12
2023/05/14 04:45:33+0000,-34.94,-45.35,-36.09,-48.17,-52.18,-54.93
2023/05/14 04:46:25+0000,-34.84,-46.30,-36.20,-48.62,-52.43,-55.55
2023/05/14 04:47:17+0000,-35.85,-44.81,-35.75,-48.95,-52.83,-54.42